{"data":{"norad_id":43926,"epoch":"2026-05-25T03:50:00.468096Z","epoch_age_seconds":54543,"freshness":"FRESH","line1":"1 43926U 19002E   26145.15972764  .00000089  00000+0  22627-4 0  9994","line2":"2 43926  86.4243  34.8185 0002636  74.0016 286.1472 14.38607933386918","mean_motion":14.38607933,"eccentricity":0.0002636,"inclination_deg":86.4243,"raan_deg":34.8185,"arg_perigee_deg":74.0016,"mean_anomaly_deg":286.1472,"bstar":2.2627e-5,"rev_number":38691,"period_min":100.09676486331,"perigee_km":761.21912008307,"apogee_km":764.98398104693,"semimajor_km":7141.238550565,"source":"CELESTRAK","updated_at":"2026-05-25T13:38:14.814728Z"}}